Date String (YYYY-MM-DD hh:mm:ss) UTC,Instrument flags,Ambient pressure (hPa),Sample flow (lpm),Bypass flow (lpm),Sample temperature (°C),Ambient temperature (°C),ASC tube jacket temperature (°C),LED temperature (°C),Box temperature (°C),Sample RH (%),Span deviation,Mass concentration (μg/m³),Mass concentration (μg/m³),Mass concentration (μg/m³)
DateTimeUTC,F1_M11,P_M11,Q1_M11,Q2_M11,T1_M11,T2_M11,T3_M11,T4_M11,T5_M11,U1_M11,ZSPAN_M11,X0_M11,X2_M11,X1_M11
2022-01-18 10:00:00,,0818.9,5.00,0.00,23.8,22.9,00.0,32.9,25.3,04.5,0000.0,0000.39,0000.30,0000.26
2022-01-18 10:01:00,,0818.9,5.00,0.00,23.8,22.9,00.0,32.9,25.4,04.4,0000.0,0000.37,0000.29,0000.26
2022-01-18 10:02:00,,0818.9,5.02,0.00,23.8,22.9,00.0,32.9,25.4,04.5,0000.0,0000.36,0000.28,0000.26
2022-01-18 10:03:00,,0818.9,4.98,0.00,23.8,22.9,00.0,32.9,25.4,04.4,0000.0,0000.35,0000.28,0000.26
2022-01-18 10:04:00,,0818.9,5.02,0.00,23.8,22.9,00.0,32.9,25.4,04.4,0000.0,0000.35,0000.28,0000.26
2022-01-18 10:05:00,,0818.9,4.99,0.00,23.7,22.9,00.0,32.9,25.4,04.3,0000.0,0000.36,0000.29,0000.26
2022-01-18 10:06:00,,0818.8,5.02,0.00,23.7,22.9,00.0,32.9,25.4,04.4,0000.0,0000.48,0000.32,0000.26
2022-01-18 10:07:00,,0818.8,4.99,0.00,23.7,22.9,00.0,32.9,25.4,04.4,0000.0,0000.54,0000.33,0000.27
2022-01-18 10:08:00,,0818.8,5.00,0.00,23.7,22.9,00.0,32.9,25.4,04.4,0000.0,0000.56,0000.34,0000.27
2022-01-18 10:09:00,,0818.8,4.99,0.00,23.7,22.9,00.0,32.8,25.4,04.4,0000.0,0000.59,0000.35,0000.27
2022-01-18 10:10:00,,0818.8,5.00,0.00,23.7,22.9,00.0,32.8,25.3,04.4,0000.0,0000.58,0000.35,0000.27
2022-01-18 10:11:00,,0818.8,5.01,0.00,23.7,22.9,00.0,32.8,25.3,04.4,0000.0,0000.56,0000.34,0000.27
2022-01-18 10:12:00,,0818.8,4.98,0.00,23.7,22.9,00.0,32.8,25.3,04.3,0000.0,0000.57,0000.34,0000.27
2022-01-18 10:13:00,,0818.8,5.02,0.00,23.7,22.9,00.0,32.8,25.3,04.4,0000.0,0000.60,0000.36,0000.28
2022-01-18 10:14:00,,0818.8,4.98,0.00,23.7,22.9,00.0,32.8,25.3,04.5,0000.0,0000.62,0000.37,0000.28
2022-01-18 10:15:00,,0818.8,5.01,0.00,23.7,22.9,00.0,32.8,25.3,04.5,0000.0,0000.62,0000.37,0000.28
2022-01-18 10:16:00,,0818.8,5.00,0.00,23.7,22.9,00.0,32.8,25.3,04.4,0000.0,0000.62,0000.36,0000.28
2022-01-18 10:17:00,,0818.7,4.99,0.00,23.7,22.8,00.0,32.8,25.2,04.3,0000.0,0000.51,0000.33,0000.28
2022-01-18 10:18:00,,0818.7,5.02,0.00,23.7,22.8,00.0,32.8,25.2,04.2,0000.0,0000.45,0000.32,0000.27
2022-01-18 10:19:00,,0818.7,4.98,0.00,23.7,22.7,00.0,32.8,25.2,04.3,0000.0,0000.43,0000.31,0000.27
2022-01-18 10:20:00,,0818.6,5.01,0.00,23.7,22.7,00.0,32.8,25.2,04.3,0000.0,0000.41,0000.31,0000.27
2022-01-18 10:21:00,,0818.6,5.00,0.00,23.7,22.8,00.0,32.8,25.3,04.4,0000.0,0000.41,0000.31,0000.27
2022-01-18 10:22:00,,0818.7,5.01,0.00,23.7,22.8,00.0,32.8,25.3,04.3,0000.0,0000.45,0000.32,0000.27
2022-01-18 10:23:00,,0818.7,4.99,0.00,23.6,22.8,00.0,32.8,25.2,04.4,0000.0,0000.50,0000.33,0000.27
2022-01-18 10:24:00,,0818.6,5.02,0.00,23.6,22.8,00.0,32.7,25.3,04.6,0000.0,0000.47,0000.31,0000.27
2022-01-18 10:25:00,,0818.6,4.98,0.00,23.6,22.8,00.0,32.7,25.2,04.3,0000.0,0000.45,0000.31,0000.26
2022-01-18 10:26:00,,0818.6,5.01,0.00,23.6,22.8,00.0,32.7,25.2,04.4,0000.0,0000.45,0000.31,0000.26
2022-01-18 10:27:00,,0818.6,4.99,0.00,23.6,22.8,00.0,32.7,25.2,04.6,0000.0,0000.45,0000.31,0000.26
2022-01-18 10:28:00,,0818.7,5.01,0.00,23.6,22.8,00.0,32.7,25.3,04.7,0000.0,0000.44,0000.31,0000.26
2022-01-18 10:29:00,,0818.6,5.00,0.00,23.7,22.8,00.0,32.7,25.3,05.2,0000.0,0000.46,0000.31,0000.27
2022-01-18 10:30:00,,0818.6,4.99,0.00,23.7,22.8,00.0,32.7,25.3,05.5,0000.0,0000.46,0000.32,0000.27
2022-01-18 10:31:00,,0818.5,5.01,0.00,23.7,22.8,00.0,32.7,25.4,05.3,0000.0,0000.46,0000.31,0000.27
2022-01-18 10:32:00,,0818.5,4.98,0.00,23.7,22.8,00.0,32.7,25.4,05.1,0000.0,0000.55,0000.33,0000.27
2022-01-18 10:33:00,,0818.5,5.01,0.00,23.7,22.8,00.0,32.7,25.4,05.0,0000.0,0000.54,0000.32,0000.28
2022-01-18 10:34:00,,0818.5,4.99,0.00,23.7,22.8,00.0,32.7,25.4,04.9,0000.0,0000.48,0000.31,0000.28
2022-01-18 10:35:00,,0818.5,5.00,0.00,23.7,22.9,00.0,32.7,25.4,04.9,0000.0,0000.48,0000.31,0000.28
2022-01-18 10:36:00,,0818.5,5.00,0.00,23.7,22.8,00.0,32.7,25.3,04.9,0000.0,0000.48,0000.31,0000.29
2022-01-18 10:37:00,,0818.5,5.00,0.00,23.7,22.8,00.0,32.7,25.3,05.2,0000.0,0000.48,0000.32,0000.29
2022-01-18 10:38:00,,0818.5,5.00,0.00,23.7,22.9,00.0,32.7,25.4,05.3,0000.0,0000.48,0000.32,0000.30
2022-01-18 10:39:00,,0818.5,4.98,0.00,23.7,22.9,00.0,32.7,25.4,05.6,0000.0,0000.47,0000.32,0000.30
2022-01-18 10:40:00,,0818.5,5.01,0.00,23.7,22.9,00.0,32.7,25.4,05.3,0000.0,0000.48,0000.32,0000.30
2022-01-18 10:41:00,,0818.5,5.00,0.00,23.7,22.9,00.0,32.7,25.4,05.3,0000.0,0000.48,0000.33,0000.31
2022-01-18 10:42:00,,0818.6,4.99,0.00,23.7,22.9,00.0,32.7,25.4,05.2,0000.0,0000.48,0000.33,0000.31
2022-01-18 10:43:00,,0818.6,5.01,0.00,23.7,22.9,00.0,32.7,25.4,05.2,0000.0,0000.40,0000.32,0000.31
2022-01-18 10:44:00,,0818.6,5.00,0.00,23.7,22.9,00.0,32.7,25.4,05.1,0000.0,0000.40,0000.33,0000.31
2022-01-18 10:45:00,,0818.7,5.00,0.00,23.7,22.9,00.0,32.7,25.5,05.1,0000.0,0000.40,0000.33,0000.32
2022-01-18 10:46:00,,0818.7,5.01,0.00,23.7,22.9,00.0,32.7,25.5,05.4,0000.0,0000.44,0000.35,0000.32
2022-01-18 10:47:00,,0818.7,4.98,0.00,23.7,23.0,00.0,32.7,25.5,05.4,0000.0,0000.46,0000.35,0000.32
2022-01-18 10:48:00,,0818.8,5.01,0.00,23.7,23.0,00.0,32.7,25.5,05.5,0000.0,0000.47,0000.36,0000.32
2022-01-18 10:49:00,,0818.8,5.00,0.00,23.7,23.0,00.0,32.7,25.5,05.6,0000.0,0000.55,0000.38,0000.32
2022-01-18 10:50:00,,0818.8,4.99,0.00,23.7,23.0,00.0,32.8,25.5,05.6,0000.0,0000.55,0000.37,0000.32
2022-01-18 10:51:00,,0818.7,5.01,0.00,23.7,23.0,00.0,32.8,25.5,06.6,0000.0,0000.59,0000.41,0000.35
2022-01-18 10:52:00,,0818.7,5.00,0.00,23.7,23.0,00.0,32.8,25.6,07.2,0000.0,0000.71,0000.53,0000.47
2022-01-18 10:53:00,,0818.7,5.00,0.00,23.8,23.0,00.0,32.8,25.6,07.0,0000.0,0000.84,0000.65,0000.59
2022-01-18 10:54:00,,0818.8,4.99,0.00,23.8,23.0,00.0,32.8,25.6,06.6,0000.0,0000.95,0000.74,0000.68
2022-01-18 10:55:00,,0818.8,4.99,0.00,23.8,23.0,00.0,32.8,25.5,06.5,0000.0,0001.00,0000.79,0000.72
2022-01-18 10:56:00,,0818.8,5.01,0.00,23.8,23.1,00.0,32.8,25.5,05.9,0000.0,0001.02,0000.80,0000.74
2022-01-18 10:57:00,,0818.7,4.99,0.00,23.8,23.0,00.0,32.8,25.5,05.3,0000.0,0000.98,0000.79,0000.74
2022-01-18 10:58:00,,0818.7,5.01,0.00,23.8,23.1,00.0,32.8,25.5,05.1,0000.0,0000.95,0000.78,0000.73
2022-01-18 10:59:00,,0818.7,4.99,0.00,23.8,23.0,00.0,32.8,25.5,05.2,0000.0,0000.96,0000.78,0000.74
